• In Österreich
  • Länderverzeichnis
  • Für 7 Tage
  • Wassertemperatur
  • Satellitenkarten
  • Wetterkarte
  • News
  • Widgets
  • user-avatar
    Anmelden

    Stündliche Wetter Satif

    Heute, 22 Mai, Dienstag

    Zeit Temperatur Niederschläge Wind Luftdruck Luftfeuchtigkeit
    00:00 +13°C° 0,1 mm 0 m/S 670 mmHg 80%
    01:00 +13°C° 0,1 mm 0 m/S 669 mmHg 80%
    02:00 +13°C° 0,1 mm 1 m/S 669 mmHg 81%
    03:00 +13°C° 0,1 mm 1 m/S 669 mmHg 82%
    04:00 +14°C° 0,2 mm 1 m/S 669 mmHg 80%
    05:00 +14°C° 0,2 mm 1 m/S 670 mmHg 78%
    06:00 +14°C° 0,2 mm 1 m/S 670 mmHg 76%
    07:00 +16°C° 0,4 mm 1 m/S 671 mmHg 68%
    08:00 +18°C° 0,4 mm 1 m/S 671 mmHg 61%
    09:00 +18°C° 0,4 mm 2 m/S 672 mmHg 53%
    10:00 +19°C° 0,1 mm 2 m/S 672 mmHg 50%
    11:00 +20°C° 0,1 mm 2 m/S 672 mmHg 47%
    12:00 +21°C° 0,1 mm 3 m/S 673 mmHg 44%
    13:00 +21°C° 0 mm 3 m/S 672 mmHg 45%
    14:00 +21°C° 0 mm 3 m/S 672 mmHg 45%
    15:00 +21°C° 0 mm 3 m/S 672 mmHg 46%
    16:00 +20°C° 0 mm 3 m/S 672 mmHg 51%
    17:00 +19°C° 0 mm 3 m/S 672 mmHg 56%
    18:00 +18°C° 0 mm 3 m/S 672 mmHg 61%
    19:00 +17°C° 0 mm 3 m/S 673 mmHg 67%
    20:00 +16°C° 0 mm 2 m/S 673 mmHg 73%
    21:00 +15°C° 0 mm 2 m/S 673 mmHg 79%
    22:00 +15°C° 0 mm 2 m/S 673 mmHg 80%
    23:00 +14°C° 0 mm 1 m/S 673 mmHg 81%

    Morgen, 23 Mai, Mittwoch

    Zeit Temperatur Niederschläge Wind Luftdruck Luftfeuchtigkeit
    00:00 +14°C° 0 mm 1 m/S 673 mmHg 82%
    01:00 +14°C° 0 mm 1 m/S 673 mmHg 82%
    02:00 +14°C° 0 mm 1 m/S 673 mmHg 83%
    03:00 +14°C° 0 mm 1 m/S 673 mmHg 83%
    04:00 +14°C° 0 mm 1 m/S 673 mmHg 78%
    05:00 +15°C° 0 mm 1 m/S 673 mmHg 73%
    06:00 +16°C° 0 mm 1 m/S 674 mmHg 68%
    07:00 +19°C° 0 mm 1 m/S 674 mmHg 58%
    08:00 +20°C° 0 mm 2 m/S 675 mmHg 48%
    09:00 +23°C° 0 mm 2 m/S 676 mmHg 39%
    10:00 +24°C° 0 mm 3 m/S 676 mmHg 37%
    11:00 +25°C° 0 mm 4 m/S 676 mmHg 36%
    12:00 +26°C° 0 mm 4 m/S 676 mmHg 35%
    13:00 +26°C° 0 mm 4 m/S 676 mmHg 36%
    14:00 +26°C° 0 mm 4 m/S 675 mmHg 38%
    15:00 +26°C° 0 mm 4 m/S 675 mmHg 39%
    16:00 +25°C° 0 mm 3 m/S 675 mmHg 43%
    17:00 +25°C° 0 mm 3 m/S 675 mmHg 46%
    18:00 +24°C° 0 mm 2 m/S 675 mmHg 50%
    19:00 +23°C° 0 mm 2 m/S 675 mmHg 53%
    20:00 +21°C° 0 mm 2 m/S 675 mmHg 57%
    21:00 +20°C° 0 mm 2 m/S 675 mmHg 60%
    22:00 +20°C° 0,2 mm 2 m/S 675 mmHg 61%
    23:00 +20°C° 0,2 mm 1 m/S 675 mmHg 61%

    übermorgen, 24 Mai, Donnerstag

    Zeit Temperatur Niederschläge Wind Luftdruck Luftfeuchtigkeit
    00:00 +20°C° 0,2 mm 1 m/S 674 mmHg 62%
    01:00 +20°C° 0 mm 1 m/S 674 mmHg 62%
    02:00 +20°C° 0 mm 1 m/S 674 mmHg 61%
    03:00 +20°C° 0 mm 1 m/S 673 mmHg 60%
    04:00 +19°C° 0 mm 2 m/S 674 mmHg 58%
    05:00 +20°C° 0 mm 2 m/S 674 mmHg 56%
    06:00 +21°C° 0 mm 2 m/S 674 mmHg 54%
    07:00 +22°C° 0 mm 3 m/S 675 mmHg 49%
    08:00 +25°C° 0 mm 3 m/S 675 mmHg 43%
    09:00 +26°C° 0 mm 4 m/S 675 mmHg 38%
    10:00 +27°C° 0 mm 4 m/S 675 mmHg 35%
    11:00 +28°C° 0 mm 4 m/S 676 mmHg 32%
    12:00 +29°C° 0 mm 4 m/S 676 mmHg 28%
    13:00 +30°C° 0 mm 4 m/S 675 mmHg 27%
    14:00 +30°C° 0 mm 3 m/S 675 mmHg 26%
    15:00 +30°C° 0 mm 3 m/S 675 mmHg 25%
    16:00 +29°C° 0 mm 3 m/S 674 mmHg 29%
    17:00 +28°C° 0 mm 2 m/S 674 mmHg 34%
    18:00 +27°C° 0 mm 2 m/S 674 mmHg 38%
    19:00 +26°C° 0 mm 2 m/S 674 mmHg 40%
    20:00 +25°C° 0 mm 2 m/S 674 mmHg 42%
    21:00 +23°C° 0 mm 2 m/S 674 mmHg 44%
    22:00 +23°C° 0 mm 2 m/S 673 mmHg 44%
    23:00 +21°C° 0 mm 2 m/S 673 mmHg 44%

    25 Mai, Freitag

    Zeit Temperatur Niederschläge Wind Luftdruck Luftfeuchtigkeit
    00:00 +21°C° 0 mm 2 m/S 672 mmHg 44%
    01:00 +20°C° 0 mm 2 m/S 672 mmHg 44%
    02:00 +20°C° 0 mm 2 m/S 672 mmHg 44%
    03:00 +20°C° 0 mm 2 m/S 672 mmHg 44%
    04:00 +21°C° 0 mm 2 m/S 672 mmHg 44%
    05:00 +21°C° 0 mm 2 m/S 672 mmHg 45%
    06:00 +23°C° 0 mm 2 m/S 673 mmHg 46%
    07:00 +25°C° 0 mm 2 m/S 673 mmHg 42%
    08:00 +26°C° 0 mm 3 m/S 674 mmHg 37%
    09:00 +28°C° 0 mm 3 m/S 674 mmHg 33%
    10:00 +29°C° 0 mm 3 m/S 674 mmHg 30%
    11:00 +30°C° 0 mm 4 m/S 674 mmHg 28%
    12:00 +32°C° 0 mm 4 m/S 675 mmHg 25%
    13:00 +32°C° 0 mm 4 m/S 674 mmHg 24%
    14:00 +32°C° 0 mm 5 m/S 674 mmHg 24%
    15:00 +32°C° 0 mm 5 m/S 674 mmHg 24%
    16:00 +30°C° 0 mm 5 m/S 673 mmHg 27%
    17:00 +29°C° 0 mm 5 m/S 673 mmHg 31%
    18:00 +28°C° 0 mm 4 m/S 673 mmHg 35%
    19:00 +26°C° 0 mm 4 m/S 673 mmHg 36%
    20:00 +25°C° 0 mm 3 m/S 673 mmHg 37%
    21:00 +24°C° 0 mm 2 m/S 673 mmHg 39%
    22:00 +24°C° 0 mm 2 m/S 672 mmHg 39%
    23:00 +23°C° 0 mm 2 m/S 672 mmHg 39%

    26 Mai, Samstag

    Zeit Temperatur Niederschläge Wind Luftdruck Luftfeuchtigkeit
    00:00 +23°C° 0 mm 2 m/S 672 mmHg 39%
    01:00 +21°C° 0 mm 2 m/S 671 mmHg 40%
    02:00 +21°C° 0 mm 2 m/S 671 mmHg 40%
    03:00 +21°C° 0 mm 2 m/S 671 mmHg 41%
    04:00 +21°C° 0 mm 2 m/S 672 mmHg 41%
    05:00 +23°C° 0 mm 2 m/S 672 mmHg 41%
    06:00 +24°C° 0 mm 2 m/S 673 mmHg 41%
    07:00 +26°C° 0 mm 3 m/S 673 mmHg 36%
    08:00 +28°C° 0 mm 4 m/S 674 mmHg 30%
    09:00 +30°C° 0 mm 5 m/S 674 mmHg 25%
    10:00 +30°C° 0 mm 5 m/S 674 mmHg 24%
    11:00 +32°C° 0 mm 6 m/S 674 mmHg 23%
    12:00 +33°C° 0 mm 7 m/S 675 mmHg 21%
    13:00 +33°C° 0 mm 6 m/S 674 mmHg 22%
    14:00 +33°C° 0 mm 6 m/S 674 mmHg 22%
    15:00 +34°C° 0 mm 5 m/S 674 mmHg 22%
    16:00 +32°C° 0 mm 5 m/S 674 mmHg 26%
    17:00 +30°C° 0 mm 4 m/S 673 mmHg 29%
    18:00 +29°C° 0 mm 4 m/S 673 mmHg 33%
    19:00 +28°C° 0,1 mm 4 m/S 673 mmHg 34%
    20:00 +27°C° 0,1 mm 4 m/S 674 mmHg 36%
    21:00 +25°C° 0,1 mm 4 m/S 674 mmHg 37%
    22:00 +25°C° 0 mm 3 m/S 673 mmHg 38%
    23:00 +25°C° 0 mm 3 m/S 673 mmHg 39%

    27 Mai, Sonntag

    Zeit Temperatur Niederschläge Wind Luftdruck Luftfeuchtigkeit
    00:00 +24°C° 0 mm 2 m/S 672 mmHg 40%
    01:00 +24°C° 0 mm 2 m/S 672 mmHg 40%
    02:00 +23°C° 0 mm 2 m/S 672 mmHg 40%
    03:00 +23°C° 0 mm 2 m/S 672 mmHg 41%
    04:00 +22°C° 0,1 mm 3 m/S 672 mmHg 42%
    05:00 +22°C° 0,1 mm 3 m/S 673 mmHg 42%
    06:00 +22°C° 0,1 mm 3 m/S 673 mmHg 43%
    07:00 +24°C° 0 mm 3 m/S 674 mmHg 40%
    08:00 +25°C° 0 mm 3 m/S 674 mmHg 37%
    09:00 +27°C° 0 mm 3 m/S 675 mmHg 33%
    10:00 +27°C° 0,1 mm 2 m/S 675 mmHg 33%
    11:00 +27°C° 0,1 mm 2 m/S 675 mmHg 33%
    12:00 +28°C° 0,1 mm 1 m/S 675 mmHg 33%
    13:00 +29°C° 0 mm 2 m/S 674 mmHg 30%
    14:00 +30°C° 0 mm 3 m/S 674 mmHg 28%
    15:00 +32°C° 0 mm 4 m/S 674 mmHg 25%
    16:00 +30°C° 0 mm 4 m/S 674 mmHg 29%
    17:00 +29°C° 0 mm 4 m/S 674 mmHg 32%
    18:00 +29°C° 0 mm 3 m/S 673 mmHg 35%
    19:00 +27°C° 0 mm 3 m/S 673 mmHg 37%
    20:00 +26°C° 0 mm 2 m/S 673 mmHg 39%
    21:00 +24°C° 0 mm 1 m/S 673 mmHg 40%
    22:00 +24°C° 0,3 mm 1 m/S 672 mmHg 42%
    23:00 +23°C° 0,3 mm 1 m/S 672 mmHg 44%
    Mehr zeigen